[[{"header":{"parameterUnit":"m.s-1","parameterCategory":2,"la1":30.2991,"la2":30.254,"lo1":-89.0895,"lo2":-89.0444,"dy":0.0017,"dx":0.0017,"nx":28,"ny":28,"refTime":"2025-11-09T09:00:00:Z","depth":"0","parameterNumber":2,"parameterNumberName":"U-component_of_CURRENTS"},"data":[0,0,0,0,0,0,0,0,0,0,0,0,0,0,0,0,0,0,0,0,0,0,0,0,0,0,0,0,0,0,0,0,0,0,0,0,0,0,0,0,0,0,0,0,0,0,0,0,0,0,0,0,0,0,0,0,0,0,0.1778,0.1778,0,0.1783,0.1783,0.1783,0.1767,0.1767,0.1767,0.1767,0.1732,0.1731,0.173,0,0,0,0,0,0,0,0,0,0,0,0,0,0.175,0.1751,0.1778,0.1778,0.1779,0.1783,0.1783,0.1783,0.1767,0.1767,0.1767,0.1766,0.1732,0.1731,0.173,0,0,0,0,0,0,0,0,0,0,0,0,0,0.1757,0.1751,0.1778,0.1774,0.1773,0.1783,0.1783,0.1782,0.1767,0.1767,0.1767,0.1766,0.1732,0.1731,0.173,0.173,0,0,0.1727,0.1726,0,0,0,0,0,0,0,0,0.1757,0.1758,0.1774,0.1774,0.1774,0.1777,0.176,0.1764,0.1767,0.1767,0.1767,0.1766,0.1745,0.1743,0.1741,0.1728,0.1726,0.1727,0.1726,0.1725,0.1725,0,0,0,0,0,0,0,0.1756,0.1757,0.1777,0.1774,0.1774,0.177,0.177,0.1761,0.1755,0.1767,0.1766,0.1771,0.1744,0.1742,0.174,0.1726,0.1727,0.1726,0.1725,0.1724,0.1729,0.1729,0,0,0,0,0,0,0.1762,0.1757,0.1777,0.1777,0.1767,0.1771,0.1771,0.1774,0.1756,0.1754,0.1772,0.1771,0.1744,0.1741,0.1739,0.1753,0.1725,0.1724,0.1724,0.1728,0.1729,0.173,0,0,0,0,0,0,0.1761,0.1764,0.1777,0.177,0.1771,0.1772,0.1775,0.1774,0.1775,0.176,0.1757,0.1774,0.1744,0.174,0.1739,0.1751,0.1724,0.1723,0.1727,0.1728,0.1729,0.1771,0,0,0,0,0,0,0.176,0.1763,0.1767,0.177,0.1772,0.1787,0.1775,0.1774,0.178,0.1778,0.1761,0.1757,0.1743,0.1741,0.1738,0.1749,0.1722,0.1726,0.1728,0.1729,0.1768,0.1773,0.1777,0,0,0,0,0,0.1759,0.1769,0.1767,0.177,0.1778,0.1788,0.1789,0.1786,0.178,0.1784,0.1775,0.1758,0.1748,0.174,0.1737,0.1748,0.1725,0.1727,0.1729,0.1766,0.1772,0.1777,0,0,0,0,0,0,0.1762,0.1769,0.1767,0.1778,0.1785,0.1787,0.1793,0.179,0.1786,0.1785,0.1766,0.1762,0.1767,0.1753,0.1745,0.1754,0.1734,0.1736,0.1764,0.1769,0.1774,0.1784,0.1721,0,0,0,0,0,0.1765,0.1772,0.1778,0.1788,0.1793,0.1793,0.1797,0.1796,0.1795,0.1793,0.1782,0.1774,0.1771,0.1767,0.1761,0.1763,0.1761,0.1769,0.1774,0.1777,0.1784,0.1796,0.1802,0.1735,0.1735,0.1735,0,0,0.1768,0.1775,0.1778,0.1789,0.1793,0.1805,0.1794,0.1805,0.1814,0.1789,0.1797,0.1788,0.1776,0.1782,0.1782,0.1771,0.1796,0.178,0.1783,0.1787,0.1798,0.1805,0.1811,0.1737,0.1736,0.1736,0,0,0.1783,0.1785,0.1796,0.1804,0.1816,0.1818,0.1823,0.1827,0.1828,0.1836,0.1823,0.1826,0.1816,0.1814,0.1811,0.1837,0.182,0.1832,0.1859,0.1871,0.1877,0.1881,0.1889,0.1894,0.1832,0.1832,0.1832,0,0.179,0.1803,0.1802,0.1818,0.1828,0.1826,0.1842,0.1844,0.1848,0.1856,0.1844,0.185,0.1835,0.1851,0.1857,0.1847,0.1848,0.1839,0.1877,0.1882,0.1886,0.1892,0.1898,0.1834,0.1834,0.1834,0.1833,0,0.1811,0.1823,0.1833,0.185,0.186,0.1875,0.1881,0.1891,0.1892,0.1896,0.1913,0.1899,0.1903,0.19,0.1883,0.1908,0.1897,0.1883,0.1864,0.1895,0.19,0.1905,0.1837,0.1836,0.1836,0.1835,0,0,0.182,0.1844,0.1848,0.1858,0.1879,0.1888,0.1911,0.1933,0.195,0.1954,0.1977,0.1974,0.1968,0.1964,0.1946,0.1953,0.1979,0.1931,0.193,0.1939,0.2004,0.2043,0.2051,0.1971,0.1972,0.1973,0.1996,0,0.1839,0.1873,0.188,0.1907,0.1922,0.1932,0.1951,0.197,0.1983,0.2002,0.2004,0.2013,0.1991,0.1989,0.1997,0.1983,0.1994,0.1974,0.1972,0.1972,0.2003,0.2059,0.216,0.2193,0.2,0.2001,0.2002,0,0.1855,0.1875,0.191,0.1933,0.1941,0.1956,0.1991,0.2006,0.2036,0.205,0.207,0.2063,0.2077,0.2047,0.2058,0.2046,0.2031,0.2021,0.2022,0.2048,0.202,0.213,0.2209,0.2256,0.2009,0.2008,0.2008,0,0.1857,0.1892,0.1921,0.1931,0.196,0.1977,0.199,0.2023,0.2047,0.2077,0.2102,0.2114,0.2122,0.2113,0.2098,0.2075,0.2112,0.2074,0.2099,0.2101,0.2182,0.219,0.231,0.2088,0.2088,0.2088,0.2088,0,0.1872,0.1887,0.1923,0.1935,0.196,0.1979,0.2013,0.203,0.2075,0.211,0.2119,0.2154,0.2139,0.2155,0.2126,0.2146,0.2138,0.2124,0.212,0.22,0.2208,0.2248,0.224,0.2089,0.2089,0.2089,0.2088,0,0.1861,0.1891,0.1912,0.1948,0.196,0.1971,0.202,0.2044,0.209,0.2137,0.2149,0.2196,0.2225,0.2218,0.2213,0.2195,0.2192,0.2198,0.2294,0.2301,0.2358,0.2348,0.2284,0.2209,0.2228,0.2229,0.223,0,0.1861,0.1875,0.1911,0.1918,0.1932,0.1962,0.1984,0.2041,0.2076,0.2166,0.2186,0.2244,0.2301,0.2333,0.2334,0.2331,0.2251,0.2384,0.2359,0.2404,0.2388,0.2235,0.2163,0.2479,0.2482,0.2484,0.2486,0,0.1839,0.1852,0.1865,0.189,0.1911,0.1942,0.1981,0.2025,0.2097,0.2168,0.2258,0.2321,0.24,0.2475,0.2486,0.2481,0.2378,0.2433,0.2468,0.2598,0.2452,0.2365,0.2406,0.2508,0.2506,0.2504,0.2503,0.2502,0.1809,0.1808,0.1827,0.1845,0.1871,0.1906,0.1927,0.2009,0.2093,0.2218,0.2296,0.2453,0.2615,0.2675,0.2622,0.2694,0.2513,0.2699,0.2682,0.2518,0.2459,0.2546,0.2646,0.2645,0.2644,0.2643,0.2642,0,0.1757,0.1764,0.1779,0.1797,0.1809,0.1844,0.1908,0.1951,0.2053,0.2253,0.2377,0.2693,0.2837,0.2908,0.3025,0.2989,0.2799,0.295,0.2806,0.2712,0.2836,0.2869,0.3038,0.3038,0.3038,0.3038,0.3038,0.3038,0.1729,0.1717,0.173,0.173,0.1747,0.1757,0.1789,0.1883,0.2028,0.2307,0.2543,0.2722,0.3021,0.3344,0.3399,0.3302,0.3049,0.3003,0.2833,0.3044,0.302,0.2996,0.3029,0.3229,0.3229,0.2674,0.2671,0.2668]},{"header":{"parameterUnit":"m.s-1","parameterCategory":2,"la1":30.2991,"la2":30.254,"lo1":-89.0895,"lo2":-89.0444,"dy":0.0017,"dx":0.0017,"nx":28,"ny":28,"refTime":"2025-11-09T09:00:00:Z","depth":"0","parameterNumber":3,"parameterNumberName":"V-component_of_CURRENTS"},"data":[0,0,0,0,0,0,0,0,0,0,0,0,0,0,0,0,0,0,0,0,0,0,0,0,0,0,0,0,0,0,0,0,0,0,0,0,0,0,0,0,0,0,0,0,0,0,0,0,0,0,0,0,0,0,0,0,0,0,-0.0479,-0.0479,0,-0.0498,-0.0498,-0.0498,-0.0524,-0.0524,-0.0524,-0.0525,-0.0513,-0.0513,-0.0512,0,0,0,0,0,0,0,0,0,0,0,0,0,-0.0489,-0.0489,-0.0479,-0.0479,-0.0479,-0.0498,-0.0498,-0.0498,-0.0524,-0.0524,-0.0525,-0.0525,-0.0513,-0.0513,-0.0512,0,0,0,0,0,0,0,0,0,0,0,0,0,-0.0494,-0.0489,-0.0479,-0.0494,-0.0496,-0.0498,-0.0498,-0.0498,-0.0523,-0.0524,-0.0525,-0.0525,-0.0514,-0.0513,-0.0512,-0.0493,0,0,-0.0508,-0.0508,0,0,0,0,0,0,0,0,-0.0494,-0.0494,-0.0491,-0.0493,-0.0495,-0.0509,-0.0498,-0.0495,-0.0523,-0.0513,-0.0525,-0.0526,-0.0508,-0.0508,-0.0511,-0.0492,-0.0492,-0.0508,-0.0508,-0.0507,-0.0507,0,0,0,0,0,0,0,-0.0493,-0.0493,-0.0486,-0.0492,-0.0494,-0.0509,-0.051,-0.0497,-0.0506,-0.0514,-0.0516,-0.0518,-0.0509,-0.0512,-0.051,-0.0491,-0.0508,-0.0507,-0.0507,-0.0506,-0.0469,-0.0469,0,0,0,0,0,0,-0.0489,-0.0493,-0.0486,-0.0487,-0.0496,-0.0508,-0.0509,-0.0504,-0.0507,-0.0509,-0.0517,-0.0519,-0.0513,-0.0512,-0.051,-0.0486,-0.0507,-0.0506,-0.0506,-0.047,-0.0469,-0.0469,0,0,0,0,0,0,-0.0489,-0.0488,-0.0485,-0.0491,-0.0492,-0.0507,-0.0501,-0.0504,-0.0506,-0.051,-0.0511,-0.0516,-0.0513,-0.0511,-0.0502,-0.0486,-0.0506,-0.0505,-0.047,-0.047,-0.0469,-0.0439,0,0,0,0,0,0,-0.0489,-0.0487,-0.0483,-0.049,-0.0491,-0.0485,-0.05,-0.0504,-0.0507,-0.0509,-0.0509,-0.0509,-0.0514,-0.0504,-0.0501,-0.0485,-0.0504,-0.0471,-0.047,-0.0469,-0.0441,-0.0438,-0.0435,0,0,0,0,0,-0.0489,-0.0475,-0.0483,-0.0482,-0.0484,-0.0485,-0.0486,-0.05,-0.0506,-0.0505,-0.0508,-0.0509,-0.0498,-0.0503,-0.05,-0.0483,-0.0471,-0.047,-0.0469,-0.0442,-0.0438,-0.0435,0,0,0,0,0,0,-0.0478,-0.0477,-0.0485,-0.0473,-0.048,-0.0489,-0.0486,-0.0495,-0.0497,-0.0498,-0.0503,-0.0502,-0.049,-0.049,-0.0496,-0.0472,-0.0485,-0.0483,-0.0465,-0.0462,-0.0459,-0.0448,-0.0503,0,0,0,0,0,-0.0473,-0.0462,-0.0471,-0.0461,-0.0462,-0.0474,-0.0476,-0.0485,-0.0488,-0.049,-0.049,-0.0489,-0.0483,-0.0477,-0.0475,-0.0456,-0.0465,-0.0444,-0.0442,-0.0439,-0.0429,-0.0431,-0.0428,-0.0466,-0.0466,-0.0466,0,0,-0.0467,-0.0464,-0.046,-0.0458,-0.0463,-0.0453,-0.0476,-0.0475,-0.0464,-0.0485,-0.0468,-0.0478,-0.0478,-0.0464,-0.0457,-0.0461,-0.0436,-0.0438,-0.0436,-0.0427,-0.043,-0.0426,-0.0423,-0.0466,-0.0466,-0.0466,0,0,-0.044,-0.0445,-0.0426,-0.0427,-0.043,-0.0438,-0.0435,-0.0443,-0.0445,-0.0436,-0.0448,-0.045,-0.0438,-0.0438,-0.0435,-0.0413,-0.0424,-0.0412,-0.0383,-0.0385,-0.0382,-0.0379,-0.0398,-0.0397,-0.0407,-0.0407,-0.0407,0,-0.0436,-0.0409,-0.0423,-0.0402,-0.0397,-0.0426,-0.0406,-0.0409,-0.0413,-0.0405,-0.0426,-0.0416,-0.0424,-0.04,-0.04,-0.0405,-0.0415,-0.0395,-0.0381,-0.0379,-0.0376,-0.0396,-0.0395,-0.0405,-0.0406,-0.0406,-0.0406,0,-0.0392,-0.0374,-0.0361,-0.0345,-0.0344,-0.0332,-0.0341,-0.0338,-0.0349,-0.0352,-0.0341,-0.0363,-0.0356,-0.0362,-0.0375,-0.0357,-0.0374,-0.0381,-0.0388,-0.037,-0.0393,-0.0392,-0.0403,-0.0404,-0.0404,-0.0405,0,0,-0.0365,-0.0338,-0.0333,-0.0309,-0.0312,-0.03,-0.0286,-0.0275,-0.0251,-0.0275,-0.025,-0.0264,-0.0286,-0.0285,-0.0306,-0.0314,-0.032,-0.0339,-0.0339,-0.0355,-0.0336,-0.0376,-0.038,-0.0324,-0.0324,-0.0323,-0.0363,0,-0.0326,-0.028,-0.0279,-0.023,-0.0203,-0.022,-0.0199,-0.0195,-0.02,-0.0185,-0.0216,-0.0205,-0.0252,-0.0253,-0.0269,-0.0303,-0.0315,-0.0309,-0.0352,-0.0354,-0.0389,-0.0379,-0.0411,-0.0451,-0.0363,-0.0363,-0.0363,0,-0.0274,-0.0248,-0.0203,-0.0157,-0.0147,-0.0128,-0.0098,-0.0081,-0.0078,-0.0083,-0.0094,-0.0122,-0.0141,-0.0186,-0.0237,-0.0231,-0.0279,-0.0314,-0.0316,-0.036,-0.0392,-0.0453,-0.0454,-0.0629,-0.0363,-0.0363,-0.0363,0,-0.0235,-0.0185,-0.0148,-0.0135,-0.01,-0.0077,-0.0061,-0.0048,-0.0019,-0.002,-0.001,-0.0044,-0.006,-0.0119,-0.0212,-0.0219,-0.0274,-0.0291,-0.0372,-0.0377,-0.0415,-0.0423,-0.0586,-0.0321,-0.0321,-0.0321,-0.0321,0,-0.0186,-0.0145,-0.0123,-0.0098,-0.0033,-0.0029,0.0033,0.0042,0.006,0.0101,0.0045,0.0055,-0.0044,-0.0096,-0.0182,-0.0282,-0.0253,-0.0364,-0.0384,-0.0408,-0.0415,-0.0577,-0.0677,-0.0323,-0.0322,-0.0322,-0.0322,0,-0.0138,-0.0133,-0.0069,-0.0029,-0.001,0.0039,0.0096,0.0143,0.0141,0.0187,0.0186,0.0136,0.006,-0.0048,-0.0149,-0.0242,-0.0447,-0.0375,-0.0408,-0.0431,-0.0672,-0.0768,-0.093,-0.1046,-0.0467,-0.0468,-0.0469,0,-0.0111,-0.0078,-0.0017,0.0028,0.0051,0.0116,0.0164,0.0184,0.0229,0.0237,0.0263,0.0197,0.0156,-0.0021,-0.0193,-0.0351,-0.0501,-0.0489,-0.0507,-0.0692,-0.0814,-0.0868,-0.0958,-0.0554,-0.0555,-0.0557,-0.0558,0,-0.0047,-0.0032,0.0014,0.0098,0.0159,0.0236,0.0299,0.0341,0.036,0.0377,0.0383,0.0346,0.0161,-0.0017,-0.0247,-0.0373,-0.0652,-0.052,-0.0697,-0.0886,-0.0969,-0.1087,-0.0536,-0.0569,-0.0568,-0.0567,-0.0567,-0.0566,0.0003,0.0046,0.0098,0.0186,0.0259,0.0345,0.0413,0.0455,0.0511,0.054,0.0482,0.0453,0.0167,-0.0154,-0.0366,-0.0764,-0.0753,-0.0877,-0.0976,-0.1009,-0.1139,-0.0623,-0.0687,-0.0687,-0.0687,-0.0686,-0.0686,0,0.0063,0.0106,0.0187,0.0287,0.038,0.0402,0.0501,0.0558,0.0613,0.0626,0.0611,0.0445,0.0073,-0.0285,-0.08,-0.1126,-0.1266,-0.1328,-0.1425,-0.1493,-0.1019,-0.1042,-0.1203,-0.1203,-0.1203,-0.1203,-0.1203,-0.1202,0.0094,0.0174,0.0212,0.0371,0.0448,0.0573,0.0633,0.0696,0.0733,0.0737,0.0711,0.0653,0.0307,-0.0647,-0.136,-0.1543,-0.1827,-0.1884,-0.202,-0.1709,-0.1674,-0.1641,-0.1686,-0.198,-0.1981,-0.2458,-0.2463,-0.2467]}],[{"header":{"parameterUnit":"m.s-1","parameterCategory":2,"la1":30.2991,"la2":30.254,"lo1":-89.0895,"lo2":-89.0444,"dy":0.0017,"dx":0.0017,"nx":28,"ny":28,"refTime":"2025-11-09T09:00:00:Z","depth":"2","parameterNumber":2,"parameterNumberName":"U-component_of_CURRENTS"},"data":[0,0,0,0,0,0,0,0,0,0,0,0,0,0,0,0,0,0,0,0,0,0,0,0,0,0,0,0,0,0,0,0,0,0,0,0,0,0,0,0,0,0,0,0,0,0,0,0,0,0,0,0,0,0,0,0,0,0,0.1757,0.1757,0,0.176,0.1759,0.1759,0.1741,0.1741,0.174,0.174,0.1699,0.1698,0.1697,0,0,0,0,0,0,0,0,0,0,0,0,0,0.173,0.173,0.1757,0.1757,0.1757,0.176,0.1759,0.1759,0.1741,0.1741,0.174,0.174,0.1699,0.1698,0.1697,0,0,0,0,0,0,0,0,0,0,0,0,0,0.1735,0.173,0.1757,0.1751,0.175,0.176,0.1759,0.1759,0.1741,0.1741,0.174,0.174,0.17,0.1698,0.1697,0.1696,0,0,0.1693,0.1692,0,0,0,0,0,0,0,0,0.1735,0.1736,0.1751,0.1751,0.1751,0.1752,0.1735,0.1737,0.1741,0.1741,0.174,0.174,0.1715,0.1712,0.171,0.1694,0.1693,0.1693,0.1692,0.1692,0.1691,0,0,0,0,0,0,0,0.1734,0.1735,0.1755,0.1752,0.1752,0.1746,0.1746,0.1735,0.1727,0.1741,0.1741,0.1746,0.1714,0.1711,0.1709,0.1692,0.1693,0.1692,0.1691,0.169,0.1693,0.1694,0,0,0,0,0,0,0.1741,0.1735,0.1755,0.1755,0.1745,0.1747,0.1747,0.175,0.1728,0.1726,0.1746,0.1745,0.1714,0.171,0.1707,0.1721,0.1692,0.169,0.169,0.1693,0.1694,0.1695,0,0,0,0,0,0,0.174,0.1742,0.1755,0.1748,0.1749,0.1748,0.1751,0.175,0.175,0.1733,0.1729,0.1749,0.1713,0.1709,0.1706,0.1718,0.169,0.1689,0.1692,0.1693,0.1694,0.1737,0,0,0,0,0,0,0.1739,0.1742,0.1746,0.1748,0.175,0.1765,0.1752,0.175,0.1755,0.1754,0.1734,0.1729,0.1713,0.1708,0.1705,0.1716,0.1688,0.1691,0.1692,0.1694,0.1735,0.174,0.1744,0,0,0,0,0,0.1738,0.1748,0.1746,0.1749,0.1756,0.1766,0.1766,0.1762,0.1756,0.176,0.1749,0.173,0.1716,0.1708,0.1704,0.1715,0.169,0.1692,0.1694,0.1733,0.1739,0.1744,0,0,0,0,0,0,0.1741,0.1747,0.1746,0.1757,0.1763,0.1764,0.177,0.1767,0.1762,0.176,0.1738,0.1734,0.1737,0.1722,0.1714,0.1722,0.1701,0.1702,0.1732,0.1738,0.1742,0.1752,0.1686,0,0,0,0,0,0.1744,0.1751,0.1757,0.1767,0.1772,0.1771,0.1775,0.1773,0.1771,0.1768,0.1756,0.1746,0.1742,0.1737,0.1729,0.1731,0.1727,0.1737,0.1741,0.1746,0.1751,0.1762,0.1769,0.1701,0.1701,0.1701,0,0,0.1747,0.1754,0.1757,0.1768,0.1772,0.1784,0.1772,0.1783,0.1791,0.1765,0.1771,0.1762,0.1747,0.1752,0.1752,0.174,0.1764,0.1748,0.1752,0.1755,0.1765,0.1772,0.1778,0.1702,0.1702,0.1702,0,0,0.1762,0.1765,0.1775,0.1783,0.1795,0.1796,0.1802,0.1806,0.1805,0.1813,0.1799,0.1802,0.179,0.1786,0.1782,0.1809,0.179,0.1804,0.1832,0.1843,0.1849,0.1854,0.1861,0.1866,0.1805,0.1805,0.1805,0,0.1769,0.1782,0.1781,0.1796,0.1807,0.1804,0.1821,0.1823,0.1825,0.1833,0.1821,0.1825,0.1809,0.1823,0.183,0.182,0.1821,0.181,0.185,0.1854,0.1859,0.1865,0.187,0.1807,0.1807,0.1806,0.1806,0,0.1788,0.1802,0.1812,0.1828,0.1839,0.1854,0.1859,0.1869,0.187,0.1874,0.189,0.1875,0.1878,0.1875,0.1857,0.1881,0.1871,0.1856,0.1835,0.1868,0.1872,0.1877,0.181,0.1809,0.1809,0.1808,0,0,0.1793,0.1821,0.1825,0.1836,0.1857,0.1866,0.1889,0.1911,0.1927,0.1931,0.1953,0.195,0.1943,0.1938,0.1921,0.1927,0.1954,0.1904,0.1904,0.1911,0.1977,0.2015,0.2024,0.1945,0.1946,0.1946,0.1969,0,0.1811,0.1846,0.1854,0.1883,0.19,0.191,0.1929,0.1947,0.196,0.1978,0.1979,0.1987,0.1966,0.1964,0.1972,0.1957,0.1967,0.1949,0.1944,0.1944,0.1974,0.2031,0.1802,0.1807,0.1973,0.1974,0.1974,0,0.1826,0.1847,0.1884,0.1911,0.1919,0.1934,0.1968,0.1982,0.2012,0.2025,0.2045,0.2037,0.2051,0.2021,0.2031,0.202,0.2005,0.1994,0.1994,0.2019,0.1992,0.18,0.1809,0.1982,0.1981,0.1981,0.198,0,0.1828,0.1865,0.1896,0.1906,0.1938,0.1955,0.1968,0.2,0.2023,0.2053,0.2077,0.2088,0.2095,0.2086,0.2071,0.2048,0.2083,0.2045,0.207,0.2071,0.1871,0.1855,0.2058,0.2058,0.2058,0.2058,0.2058,0,0.1843,0.1861,0.1898,0.1911,0.1936,0.1957,0.199,0.2007,0.2051,0.2085,0.2093,0.2127,0.2112,0.2127,0.2098,0.2117,0.2109,0.2095,0.209,0.1883,0.1868,0.201,0.2004,0.2059,0.2059,0.2059,0.2059,0,0.1835,0.1866,0.1889,0.1926,0.1938,0.1949,0.1997,0.2021,0.2066,0.2112,0.2124,0.2169,0.2197,0.2189,0.2183,0.2166,0.2164,0.2167,0.1934,0.1905,0.2131,0.2127,0.2193,0.2194,0.2196,0.2197,0.2198,0,0.1837,0.1852,0.1889,0.1896,0.191,0.194,0.1962,0.2018,0.2052,0.214,0.216,0.2216,0.2252,0.2282,0.2194,0.2165,0.2226,0.2009,0.1939,0.2161,0.2149,0.2143,0.2137,0.1671,0.1668,0.1665,0.1663,0,0.1818,0.183,0.1843,0.1869,0.189,0.192,0.1958,0.2002,0.2073,0.2118,0.2206,0.2248,0.2248,0.212,0.2095,0.205,0.1997,0.1961,0.2229,0.1709,0.1681,0.1667,0.1675,0.1639,0.1641,0.1643,0.1644,0.1645,0.1789,0.1788,0.1806,0.1825,0.185,0.1885,0.1904,0.1889,0.1936,0.19,0.208,0.2006,0.202,0.1829,0.1801,0.1758,0.1891,0.1814,0.1816,0.1822,0.1794,0.1775,0.1743,0.1745,0.1748,0.175,0.1752,0,0.1712,0.1745,0.1759,0.1777,0.1754,0.1823,0.1885,0.1809,0.1756,0.1703,0.1681,0.1529,0.1458,0.1504,0.1371,0.1428,0.1333,0.1427,0.1259,0.1286,0.1308,0.1248,0.1055,0.1053,0.1051,0.105,0,0,0.1677,0.1651,0.1664,0.1643,0.1684,0.1634,0.1663,0.1553,0.1464,0.1244,0.1146,0.1152,0.136,0.1095,0.1131,0.1077,0.1155,0.1037,0.1587,0.1406,0.1425,0.1524,0.1463,0,0,0,0,0]},{"header":{"parameterUnit":"m.s-1","parameterCategory":2,"la1":30.2991,"la2":30.254,"lo1":-89.0895,"lo2":-89.0444,"dy":0.0017,"dx":0.0017,"nx":28,"ny":28,"refTime":"2025-11-09T09:00:00:Z","depth":"2","parameterNumber":3,"parameterNumberName":"V-component_of_CURRENTS"},"data":[0,0,0,0,0,0,0,0,0,0,0,0,0,0,0,0,0,0,0,0,0,0,0,0,0,0,0,0,0,0,0,0,0,0,0,0,0,0,0,0,0,0,0,0,0,0,0,0,0,0,0,0,0,0,0,0,0,0,-0.044,-0.0441,0,-0.0456,-0.0457,-0.0457,-0.0478,-0.0478,-0.0479,-0.0479,-0.0459,-0.0458,-0.0457,0,0,0,0,0,0,0,0,0,0,0,0,0,-0.0452,-0.0452,-0.044,-0.0441,-0.0441,-0.0456,-0.0457,-0.0457,-0.0478,-0.0478,-0.0479,-0.0479,-0.0459,-0.0458,-0.0457,0,0,0,0,0,0,0,0,0,0,0,0,0,-0.0455,-0.0452,-0.044,-0.0454,-0.0455,-0.0456,-0.0457,-0.0457,-0.0478,-0.0478,-0.0479,-0.048,-0.046,-0.0458,-0.0457,-0.0437,0,0,-0.0453,-0.0452,0,0,0,0,0,0,0,0,-0.0455,-0.0455,-0.0451,-0.0453,-0.0454,-0.0466,-0.0454,-0.0449,-0.0478,-0.0469,-0.0479,-0.048,-0.0458,-0.0457,-0.0459,-0.0437,-0.0436,-0.0453,-0.0452,-0.0452,-0.0451,0,0,0,0,0,0,0,-0.0455,-0.0454,-0.0446,-0.0452,-0.0453,-0.0467,-0.0468,-0.0453,-0.0459,-0.047,-0.0471,-0.0473,-0.0458,-0.046,-0.0458,-0.0435,-0.0453,-0.0452,-0.0451,-0.045,-0.0412,-0.0412,0,0,0,0,0,0,-0.0451,-0.0454,-0.0446,-0.0447,-0.0456,-0.0466,-0.0467,-0.0461,-0.046,-0.0461,-0.0473,-0.0474,-0.0462,-0.046,-0.0457,-0.0433,-0.0452,-0.045,-0.045,-0.0412,-0.0412,-0.0412,0,0,0,0,0,0,-0.0451,-0.045,-0.0445,-0.0452,-0.0452,-0.0465,-0.0459,-0.0461,-0.0463,-0.0463,-0.0463,-0.0472,-0.0462,-0.0459,-0.0449,-0.0432,-0.045,-0.0448,-0.0413,-0.0412,-0.0412,-0.0384,0,0,0,0,0,0,-0.0451,-0.045,-0.0446,-0.0451,-0.0452,-0.0445,-0.0458,-0.0461,-0.0464,-0.0466,-0.0462,-0.0461,-0.0462,-0.0451,-0.0447,-0.0431,-0.0447,-0.0413,-0.0412,-0.0412,-0.0386,-0.0383,-0.0381,0,0,0,0,0,-0.0452,-0.0438,-0.0445,-0.0445,-0.0445,-0.0445,-0.0446,-0.0458,-0.0463,-0.0462,-0.0463,-0.0461,-0.0446,-0.0449,-0.0445,-0.0428,-0.0413,-0.0412,-0.0412,-0.0387,-0.0384,-0.0381,0,0,0,0,0,0,-0.044,-0.0439,-0.0447,-0.0434,-0.0441,-0.0448,-0.0445,-0.0454,-0.0454,-0.0454,-0.0455,-0.0454,-0.044,-0.0439,-0.0443,-0.0418,-0.043,-0.0428,-0.0412,-0.0409,-0.0407,-0.0395,-0.0446,0,0,0,0,0,-0.0436,-0.0425,-0.0433,-0.0423,-0.0424,-0.0435,-0.0436,-0.0445,-0.0446,-0.0447,-0.0445,-0.0441,-0.0434,-0.0427,-0.0423,-0.0402,-0.041,-0.0391,-0.0389,-0.0387,-0.0376,-0.0378,-0.0374,-0.041,-0.041,-0.041,0,0,-0.043,-0.0427,-0.0422,-0.042,-0.0424,-0.0414,-0.0437,-0.0435,-0.0424,-0.0442,-0.0423,-0.0432,-0.0429,-0.0414,-0.0407,-0.041,-0.0384,-0.0386,-0.0384,-0.0374,-0.0377,-0.0373,-0.037,-0.041,-0.041,-0.041,0,0,-0.0403,-0.0408,-0.0389,-0.0389,-0.0393,-0.0399,-0.0397,-0.0404,-0.0406,-0.0395,-0.0406,-0.0407,-0.0393,-0.0391,-0.0386,-0.0367,-0.0375,-0.0366,-0.0338,-0.034,-0.0336,-0.0334,-0.0353,-0.0352,-0.0361,-0.0361,-0.0361,0,-0.0399,-0.0372,-0.0385,-0.0365,-0.036,-0.0388,-0.0368,-0.037,-0.0373,-0.0365,-0.0385,-0.0374,-0.0379,-0.0353,-0.0355,-0.0359,-0.0369,-0.0347,-0.0336,-0.0333,-0.0331,-0.0351,-0.035,-0.036,-0.036,-0.036,-0.036,0,-0.0352,-0.0336,-0.0324,-0.0307,-0.0306,-0.0294,-0.0302,-0.0299,-0.031,-0.0312,-0.0301,-0.0321,-0.0313,-0.032,-0.0331,-0.0313,-0.033,-0.0336,-0.0341,-0.0325,-0.0348,-0.0348,-0.0358,-0.0358,-0.0358,-0.0359,0,0,-0.0321,-0.0298,-0.0294,-0.0272,-0.0274,-0.0261,-0.0248,-0.0236,-0.0212,-0.0235,-0.0209,-0.0223,-0.0245,-0.0243,-0.0263,-0.027,-0.0278,-0.0295,-0.0296,-0.0311,-0.0294,-0.0334,-0.0338,-0.0282,-0.0281,-0.0281,-0.0321,0,-0.0281,-0.0236,-0.0236,-0.019,-0.0165,-0.0182,-0.016,-0.0155,-0.016,-0.0145,-0.0175,-0.0164,-0.0211,-0.0212,-0.0227,-0.026,-0.0273,-0.0267,-0.0309,-0.031,-0.0345,-0.0337,-0.0252,-0.0283,-0.0321,-0.0321,-0.0321,0,-0.0228,-0.0203,-0.0161,-0.0119,-0.0109,-0.009,-0.0059,-0.0042,-0.0037,-0.0043,-0.0053,-0.0081,-0.01,-0.0144,-0.0195,-0.0189,-0.0237,-0.0272,-0.0274,-0.0317,-0.0349,-0.0302,-0.0282,-0.0321,-0.0321,-0.0321,-0.0321,0,-0.0189,-0.0142,-0.0107,-0.0095,-0.0062,-0.0039,-0.0023,-0.0009,0.002,0.002,0.003,-0.0003,-0.0019,-0.0078,-0.017,-0.0177,-0.0233,-0.0249,-0.0331,-0.0335,-0.0273,-0.0272,-0.0279,-0.0279,-0.0279,-0.0279,-0.0279,0,-0.0141,-0.0103,-0.0082,-0.0058,0.0006,0.0008,0.0071,0.008,0.01,0.0141,0.0085,0.0095,-0.0003,-0.0055,-0.0141,-0.0241,-0.0212,-0.0323,-0.0343,-0.0264,-0.0263,-0.03,-0.0302,-0.0281,-0.028,-0.028,-0.028,0,-0.0097,-0.0092,-0.0031,0.0008,0.0028,0.0076,0.0134,0.0181,0.018,0.0226,0.0225,0.0176,0.01,-0.0008,-0.0108,-0.0201,-0.0292,-0.0334,-0.0251,-0.0261,-0.0402,-0.0402,-0.0423,-0.0425,-0.0426,-0.0428,-0.0428,0,-0.0071,-0.0041,0.002,0.0064,0.0087,0.0152,0.0201,0.0221,0.0267,0.0275,0.0303,0.0236,0.0205,0.0028,-0.0105,-0.0251,-0.0312,-0.0327,-0.0329,-0.0397,-0.0414,-0.0412,-0.041,-0.0237,-0.0237,-0.0236,-0.0236,0,-0.0011,0.0004,0.005,0.0133,0.0195,0.0272,0.0335,0.0378,0.0398,0.0431,0.0438,0.041,0.0256,0.0142,-0.0074,-0.0176,-0.0299,-0.0324,-0.0388,-0.0228,-0.0228,-0.0244,-0.0246,-0.0231,-0.0231,-0.0232,-0.0232,-0.0232,0.0038,0.008,0.0132,0.0221,0.0294,0.0381,0.0449,0.0556,0.0634,0.0742,0.0615,0.0631,0.0418,0.0223,-0.0011,-0.0246,-0.0246,-0.0335,-0.0332,-0.0332,-0.0317,-0.0321,-0.0339,-0.034,-0.034,-0.0341,-0.0342,0,0.0121,0.0139,0.022,0.0321,0.0442,0.0437,0.0537,0.0671,0.0828,0.0906,0.096,0.0786,0.0609,0.0331,0.0025,-0.0209,-0.0197,-0.032,-0.0239,-0.0241,-0.0243,-0.0222,-0.022,-0.0221,-0.0222,-0.0222,0,0,0.0159,0.0251,0.0289,0.046,0.0515,0.0682,0.0744,0.0931,0.1049,0.1219,0.1224,0.1188,0.0753,0.0548,0.0227,0.0006,-0.0064,-0.0037,-0.0099,0.0037,0.0037,-0.0208,-0.0172,0,0,0,0,0]}],[{"header":{"parameterUnit":"m.s-1","parameterCategory":2,"la1":30.2991,"la2":30.254,"lo1":-89.0895,"lo2":-89.0444,"dy":0.0017,"dx":0.0017,"nx":28,"ny":28,"refTime":"2025-11-09T09:00:00:Z","depth":"4","parameterNumber":2,"parameterNumberName":"U-component_of_CURRENTS"},"data":[0,0,0,0,0,0,0,0,0,0,0,0,0,0,0,0,0,0,0,0,0,0,0,0,0,0,0,0,0,0,0,0,0,0,0,0,0,0,0,0,0,0,0,0,0,0,0,0,0,0,0,0,0,0,0,0,0,0,0.0488,0.0489,0,0.0508,0.0507,0.0507,0.0518,0.0518,0.0518,0.0519,0.0565,0.0566,0.0567,0,0,0,0,0,0,0,0,0,0,0,0,0,0.0451,0.0451,0.0488,0.0489,0.0489,0.0508,0.0507,0.0507,0.0518,0.0518,0.0518,0.0519,0.0565,0.0566,0.0567,0,0,0,0,0,0,0,0,0,0,0,0,0,0.0465,0.0451,0.0488,0.0499,0.05,0.0508,0.0507,0.0507,0.0518,0.0518,0.0519,0.0519,0.0565,0.0566,0.0568,0.0568,0,0,0.0572,0.0573,0,0,0,0,0,0,0,0,0.0465,0.0466,0.0497,0.0498,0.05,0.0513,0.0512,0.053,0.0518,0.0508,0.0519,0.0519,0.0552,0.0555,0.0553,0.057,0.0572,0.0572,0.0573,0.0574,0.0574,0,0,0,0,0,0,0,0.0464,0.0466,0.0493,0.0497,0.0499,0.0499,0.0502,0.0515,0.0526,0.0509,0.051,0.0517,0.0553,0.0551,0.0554,0.0573,0.0572,0.0573,0.0574,0.0575,0.0677,0.0679,0,0,0,0,0,0,0.0467,0.0465,0.0492,0.0494,0.0486,0.05,0.0502,0.0506,0.0525,0.0529,0.0517,0.0517,0.0549,0.0552,0.0556,0.0629,0.0574,0.0575,0.0576,0.0675,0.0678,0.068,0,0,0,0,0,0,0.0466,0.0469,0.0492,0.0482,0.0485,0.0501,0.0504,0.0506,0.0525,0.0531,0.0535,0.0536,0.0549,0.0554,0.0593,0.0629,0.0576,0.0577,0.0673,0.0676,0.0679,0.073,0,0,0,0,0,0,0.0465,0.0469,0.048,0.0482,0.0486,0.0507,0.0504,0.0506,0.0529,0.0531,0.0549,0.0552,0.055,0.0591,0.0595,0.063,0.0578,0.0671,0.0674,0.0678,0.0726,0.0735,0.0742,0,0,0,0,0,0.0463,0.0473,0.048,0.0484,0.0498,0.0508,0.051,0.052,0.053,0.0538,0.0561,0.0553,0.0616,0.0594,0.0597,0.0634,0.0669,0.0673,0.0677,0.0723,0.0733,0.0741,0,0,0,0,0,0,0.0462,0.0475,0.0483,0.0496,0.0509,0.0511,0.0526,0.0533,0.0556,0.0571,0.0572,0.0577,0.0627,0.0624,0.06,0.0675,0.0643,0.0648,0.0677,0.0686,0.0694,0.0698,0.0579,0,0,0,0,0,0.0467,0.048,0.0491,0.0504,0.0514,0.0525,0.0535,0.0545,0.0563,0.0574,0.0595,0.062,0.0643,0.066,0.068,0.0716,0.0715,0.0745,0.0752,0.0759,0.0767,0.0799,0.081,0.0693,0.0693,0.0693,0,0,0.0471,0.0482,0.0489,0.0506,0.0518,0.054,0.0532,0.0557,0.0586,0.0577,0.0634,0.0649,0.066,0.0704,0.0727,0.0709,0.0791,0.0764,0.0769,0.0774,0.0805,0.0816,0.0826,0.0696,0.0695,0.0695,0,0,0.0485,0.0496,0.0514,0.0527,0.0556,0.0565,0.0578,0.0604,0.0626,0.0673,0.0681,0.0719,0.0755,0.0772,0.0781,0.0844,0.0831,0.0855,0.0897,0.0928,0.0938,0.0946,0.0952,0.096,0.0858,0.0858,0.0858,0,0.0491,0.0513,0.052,0.0543,0.0563,0.0581,0.0609,0.0632,0.0673,0.0703,0.0704,0.0779,0.0787,0.0837,0.0861,0.0862,0.0868,0.0857,0.0937,0.0946,0.0953,0.0957,0.0966,0.0861,0.0861,0.086,0.086,0,0.0515,0.0541,0.0554,0.0591,0.0612,0.0639,0.0672,0.071,0.0745,0.0774,0.0843,0.0859,0.0902,0.0914,0.0905,0.097,0.0953,0.0942,0.091,0.0968,0.0968,0.0977,0.0865,0.0864,0.0863,0.0863,0,0,0.0509,0.0561,0.0568,0.0596,0.0641,0.0661,0.0718,0.077,0.082,0.0868,0.0929,0.0973,0.0991,0.1003,0.1005,0.1031,0.1086,0.1015,0.1015,0.1013,0.1144,0.1073,0.1074,0.1091,0.1093,0.1095,0.1119,0,0.0529,0.0578,0.0602,0.0658,0.0687,0.0723,0.0775,0.083,0.0879,0.0945,0.0978,0.104,0.1022,0.1052,0.1077,0.1088,0.1112,0.108,0.1095,0.1095,0.1018,0.1083,0.1101,0.1125,0.1127,0.1128,0.1129,0,0.0547,0.0579,0.0635,0.0701,0.0719,0.0762,0.0846,0.0899,0.0986,0.1024,0.1084,0.111,0.1166,0.114,0.1188,0.117,0.1168,0.1166,0.1167,0.1088,0.1039,0.1058,0.1143,0.1142,0.1141,0.114,0.1139,0,0.0539,0.0603,0.065,0.0671,0.0748,0.0793,0.0849,0.0936,0.0992,0.1089,0.1133,0.1193,0.1236,0.1249,0.1248,0.123,0.1287,0.1256,0.1185,0.1179,0.121,0.12,0.1294,0.1294,0.1294,0.1294,0.1294,0,0.0542,0.0582,0.0656,0.0682,0.0757,0.0814,0.0905,0.0966,0.1058,0.1124,0.1185,0.1226,0.127,0.1299,0.1282,0.126,0.1316,0.1206,0.1191,0.123,0.1223,0.1214,0.1205,0.1295,0.1295,0.1295,0.1294,0,0.0526,0.057,0.0631,0.0719,0.0757,0.0819,0.0936,0.0991,0.1087,0.1169,0.1204,0.1278,0.1313,0.1333,0.1356,0.1301,0.1287,0.1264,0.1305,0.1289,0.1145,0.1138,0.1184,0.1182,0.118,0.1179,0.1178,0,0.0523,0.0548,0.0653,0.0695,0.0742,0.0838,0.0898,0.1002,0.1051,0.1179,0.1202,0.1283,0.1314,0.1283,0.1312,0.1288,0.1265,0.1246,0.1195,0.1158,0.1139,0.1135,0.1131,0.1175,0.1174,0.1174,0.1173,0,0.0512,0.0554,0.0604,0.0685,0.0752,0.0817,0.0908,0.0935,0.1044,0.1137,0.1167,0.1187,0.1226,0.123,0.1234,0.1208,0.1253,0.1226,0.1229,0.1181,0.1147,0.1129,0.1127,0.1167,0.1168,0.1169,0.1169,0,0.0508,0.0534,0.0599,0.0664,0.0734,0.0764,0.0824,0.0872,0.0932,0.1058,0.1064,0.1137,0.1211,0.119,0.1187,0.1171,0.1138,0.1078,0.1088,0.1095,0.1055,0.0998,0.0974,0,0,0,0,0,0.0501,0.0514,0.057,0.0621,0.0677,0.0715,0.0807,0.0858,0.0957,0.0948,0.1003,0.1029,0.1043,0.1081,0.1042,0.1145,0.1141,0.1095,0.1077,0.1133,0.114,0.1102,0,0,0,0,0,0,0.0485,0.0535,0.0552,0.0563,0.0578,0.0626,0.0675,0.0746,0.0747,0.0853,0.0864,0.0951,0.0978,0.1042,0.1013,0.1026,0.0989,0.1146,0.1143,0.1129,0.1136,0.1141,0.1105,0,0,0,0,0]},{"header":{"parameterUnit":"m.s-1","parameterCategory":2,"la1":30.2991,"la2":30.254,"lo1":-89.0895,"lo2":-89.0444,"dy":0.0017,"dx":0.0017,"nx":28,"ny":28,"refTime":"2025-11-09T09:00:00:Z","depth":"4","parameterNumber":3,"parameterNumberName":"V-component_of_CURRENTS"},"data":[0,0,0,0,0,0,0,0,0,0,0,0,0,0,0,0,0,0,0,0,0,0,0,0,0,0,0,0,0,0,0,0,0,0,0,0,0,0,0,0,0,0,0,0,0,0,0,0,0,0,0,0,0,0,0,0,0,0,0.0546,0.0546,0,0.0554,0.0554,0.0554,0.0573,0.0573,0.0573,0.0573,0.0584,0.0584,0.0585,0,0,0,0,0,0,0,0,0,0,0,0,0,0.0526,0.0526,0.0546,0.0546,0.0546,0.0554,0.0554,0.0554,0.0573,0.0573,0.0573,0.0574,0.0584,0.0584,0.0585,0,0,0,0,0,0,0,0,0,0,0,0,0,0.0536,0.0526,0.0546,0.0555,0.0556,0.0554,0.0554,0.0554,0.0573,0.0573,0.0573,0.0574,0.0584,0.0584,0.0585,0.0579,0,0,0.0585,0.0585,0,0,0,0,0,0,0,0,0.0535,0.0537,0.0554,0.0554,0.0555,0.0561,0.055,0.0562,0.0573,0.0568,0.0573,0.0574,0.0575,0.0576,0.058,0.0579,0.058,0.0585,0.0585,0.0585,0.0585,0,0,0,0,0,0,0,0.0535,0.0536,0.0551,0.0554,0.0554,0.055,0.0553,0.0553,0.0572,0.0569,0.057,0.0567,0.0576,0.0579,0.058,0.058,0.0585,0.0585,0.0585,0.0585,0.0556,0.0555,0,0,0,0,0,0,0.0531,0.0536,0.0551,0.0551,0.0544,0.055,0.0553,0.056,0.0571,0.0573,0.0567,0.0568,0.0579,0.058,0.058,0.0574,0.0585,0.0585,0.0585,0.0557,0.0556,0.0555,0,0,0,0,0,0,0.053,0.0532,0.0551,0.0542,0.0543,0.055,0.0558,0.056,0.0573,0.057,0.0572,0.0579,0.0579,0.058,0.0582,0.0574,0.0585,0.0585,0.0558,0.0557,0.0556,0.0561,0,0,0,0,0,0,0.053,0.0533,0.0543,0.0542,0.0544,0.0559,0.0558,0.056,0.0569,0.0571,0.058,0.0581,0.058,0.0582,0.0582,0.0575,0.0586,0.0559,0.0557,0.0556,0.0562,0.056,0.0558,0,0,0,0,0,0.0529,0.0541,0.0544,0.0545,0.0556,0.0559,0.056,0.0567,0.057,0.0579,0.0578,0.0581,0.0572,0.0582,0.0583,0.0575,0.056,0.0558,0.0556,0.0563,0.056,0.0558,0,0,0,0,0,0,0.0538,0.0543,0.0547,0.056,0.0563,0.0562,0.057,0.0572,0.0579,0.0582,0.058,0.058,0.0576,0.0572,0.0584,0.0558,0.0562,0.0561,0.0567,0.0565,0.0563,0.0567,0.0586,0,0,0,0,0,0.0543,0.0556,0.0556,0.0568,0.057,0.0572,0.0575,0.0579,0.058,0.0584,0.0584,0.0577,0.0566,0.0565,0.0558,0.0553,0.0533,0.0543,0.0541,0.054,0.0541,0.0496,0.0491,0.0549,0.0549,0.0549,0,0,0.0551,0.0554,0.0562,0.0571,0.0574,0.0577,0.0576,0.0585,0.0584,0.0583,0.0586,0.0576,0.0562,0.0552,0.0548,0.0551,0.0512,0.0537,0.0537,0.0539,0.0494,0.0488,0.0483,0.0547,0.0548,0.0548,0,0,0.0563,0.0574,0.0585,0.0588,0.0592,0.059,0.0594,0.0594,0.0595,0.0593,0.0583,0.0569,0.0562,0.0545,0.0535,0.0519,0.0504,0.0514,0.0512,0.0468,0.0463,0.0459,0.0425,0.0417,0.0513,0.0513,0.0513,0,0.0572,0.0587,0.0589,0.0595,0.06,0.0596,0.0606,0.06,0.0599,0.0594,0.0595,0.0561,0.0554,0.0527,0.052,0.0516,0.0492,0.0525,0.0467,0.0462,0.0457,0.0424,0.0415,0.0513,0.0513,0.0513,0.0513,0,0.0586,0.06,0.0606,0.0614,0.0618,0.0628,0.0617,0.0617,0.0612,0.06,0.0578,0.0557,0.0536,0.0525,0.0521,0.0481,0.0476,0.0471,0.0476,0.0452,0.0418,0.0409,0.0513,0.0513,0.0513,0.0513,0,0,0.0609,0.0617,0.0623,0.0629,0.0632,0.0636,0.0632,0.0626,0.0619,0.0599,0.058,0.055,0.0534,0.052,0.0503,0.0467,0.0414,0.0458,0.0456,0.0432,0.0321,0.0322,0.0312,0.0399,0.0398,0.0397,0.0311,0,0.0626,0.0644,0.0643,0.0658,0.0667,0.066,0.0654,0.0643,0.0629,0.0605,0.0566,0.0541,0.0531,0.0518,0.0478,0.0434,0.0391,0.0438,0.0342,0.034,0.0348,0.0302,0.0392,0.0304,0.0302,0.0301,0.03,0,0.0647,0.0655,0.0677,0.068,0.0684,0.0688,0.0685,0.0677,0.0639,0.0623,0.0586,0.0552,0.0499,0.0489,0.0392,0.0423,0.0372,0.0334,0.0329,0.0323,0.0323,0.0332,0.0283,0.0285,0.0286,0.0287,0.0288,0,0.0668,0.0682,0.0702,0.0706,0.0704,0.0711,0.071,0.0687,0.0684,0.0633,0.0619,0.0546,0.0511,0.0434,0.0361,0.037,0.0251,0.0252,0.02,0.02,0.0226,0.0231,0.017,0.017,0.017,0.017,0.0171,0,0.0687,0.0705,0.0715,0.0725,0.0741,0.0732,0.0744,0.0726,0.0704,0.0696,0.063,0.0602,0.0495,0.0419,0.0349,0.0248,0.0236,0.0188,0.0171,0.0229,0.0236,0.0219,0.0226,0.0167,0.0168,0.0169,0.0169,0,0.0705,0.0716,0.0737,0.0746,0.0753,0.0764,0.0779,0.0785,0.0755,0.0741,0.0725,0.0635,0.0535,0.043,0.0299,0.0239,0.0141,0.0108,0.0179,0.017,0.0121,0.0129,0.0033,0.0032,0.0031,0.0031,0.003,0,0.0708,0.0724,0.0755,0.0774,0.0784,0.0805,0.0824,0.0814,0.0822,0.0767,0.0759,0.0655,0.0588,0.0401,0.0288,0.0132,0.0118,0.0059,0.0085,0.0111,0.0104,0.0113,0.0122,0.0029,0.0029,0.0029,0.0029,0,0.0708,0.0731,0.0749,0.0797,0.0829,0.0862,0.0888,0.0894,0.0879,0.0852,0.0782,0.067,0.0551,0.0405,0.0279,0.0173,0.0091,0.0051,0.0052,0.0076,0.0105,0.0101,0.011,0.0026,0.0026,0.0027,0.0027,0,0.0708,0.0727,0.0767,0.0805,0.0857,0.0905,0.0916,0.0919,0.0918,0.0856,0.0832,0.0693,0.0607,0.0425,0.0313,0.0201,0.0176,0.0142,0.0138,0.0139,0.0199,0.0254,0.0193,0,0,0,0,0,0.0694,0.0728,0.0771,0.0825,0.0884,0.0922,0.0952,0.0958,0.0943,0.0903,0.0868,0.0758,0.0563,0.047,0.0359,0.0305,0.0161,0.0171,0.0122,0.0012,0.0015,0.0067,0,0,0,0,0,0,0.0692,0.0736,0.0767,0.084,0.0888,0.096,0.0987,0.098,0.0951,0.091,0.081,0.0736,0.0552,0.0637,0.0362,0.0324,0.0277,0.0075,0.0072,0.0011,0.0013,0.0016,0.007,0,0,0,0,0]}]]